Regional Weather Roundup
Issued by NWS

Home | Current Version | Previous Version | Graphics & Text | Print | Product List | Glossary Off
Versions: 1 2 3 4 5 6 7 8 9 10 11 12 13 14 15 16 17 18 19 20 21 22 23 24 25 26 27 28 29 30 31 32 33 34 35 36 37 38 39 40 41 42 43 44 45 46 47 48 49 50

000
ASUS43 KDMX 250707
RWRIA

WEATHER ROUNDUP FOR IOWA
NATIONAL WEATHER SERVICE DES MOINES IA
200 AM CDT SAT APR 25 2015

NOTE: "FAIR" INDICATES FEW OR NO CLOUDS BELOW 12,000 FEET WITH NO
SIGNIFICANT WEATHER AND/OR OBSTRUCTIONS TO VISIBILITY.

* - THESE STATIONS ARE NOT NWS STATIONS...THUS NOT UNDER NWS
QUALITY CONTROL.  THEY ALSO DO NOT REPORT WEATHER SUCH
AS PRECIPITATION OR FOG.

IAZ001>003-012>014-020>022-031>034-043>046-250800-
   NORTHWEST IOWA

CITY           SKY/WX    TMP DP  RH WIND       PRES   REMARKS
CARROLL *      CLOUDY    46  46 100 E16       29.59F FOG
CHEROKEE *     CLOUDY    48  46  93 E12       29.62S
DENISON *      CLOUDY    48  48 100 E14       29.55F FOG
LE MARS *      CLOUDY    52  48  87 E8G17     29.60F
ORANGE CITY *  CLOUDY    46  45  93 E9        29.61S
SHELDON *      CLOUDY    48  46  93 E15       29.62S
SIOUX CITY     CLOUDY    54  47  77 E14       29.57S
SPENCER        CLOUDY    47  42  83 E17       29.64F
STORM LAKE *   CLOUDY    46  45  93 E18       29.62S
$$

IAZ055>058-069>071-079>083-090>094-250800-
   SOUTHWEST IOWA

CITY           SKY/WX    TMP DP  RH WIND       PRES   REMARKS
ATLANTIC *     CLOUDY    52  52 100 E12       29.53F
AUDUBON *      CLOUDY    48  46  93 E10       29.57F FOG
CLARINDA *     CLOUDY    57  54  88 E9G15     29.50F
COUNCIL BLFS * LGT RAIN  55  55 100 E17G23    29.49F
CRESTON *      CLOUDY    55  55 100 E16       29.54F
HARLAN  *      CLOUDY    52  52 100 NE13      29.56F
LAMONI         CLOUDY    57  51  80 SE8       29.55F
RED OAK *      LGT RAIN  55  55 100 E10G17    29.49F
SHENANDOAH *   CLOUDY    57  55  94 E16G22    29.47F
$$

IAZ047>049-059>061-072>074-084-250800-
   CENTRAL IOWA

CITY           SKY/WX    TMP DP  RH WIND       PRES   REMARKS
AMES           LGT RAIN  47  43  86 E12       29.64F
ANKENY *       CLOUDY    48  45  87 E9G17     29.61F
CHARITON *     CLOUDY    54  52  94 E14       29.56F
DES MOINES     LGT RAIN  50  43  77 E13       29.60F
GRINNELL*      CLOUDY    46  43  87 E13       29.65F
KNOXVILLE *    CLOUDY    52  43  71 E14       29.60F
MARSHALLTOWN   CLOUDY    46  42  86 E17       29.66S
PELLA *        MOCLDY    50  46  87 E8        29.63F
PERRY *        CLOUDY    48  45  87 E16       29.60F
$$

IAZ004>006-015-016-023>025-035-036-250800-
   NORTH CENTRAL IOWA

CITY           SKY/WX    TMP DP  RH WIND       PRES   REMARKS
ALGONA *       CLOUDY    45  43  93 E14G21    29.68S
CLARION *      CLOUDY    45  45 100 E18       29.67S
ESTHERVILLE    CLOUDY    44  41  89 E17       29.67F
FORT DODGE *   CLOUDY    46  41  81 E15       29.65F
MASON CITY     CLOUDY    44  40  85 E13G22    29.72S
FOREST CITY *  CLOUDY    43  39  87 E12G17    29.71R
IOWA FALLS *   CLOUDY    45  41  87 E17       29.68F
$$

IAZ007>011-017>019-026>030-037>042-050>054-066-250800-
   NORTHEAST IOWA

CITY           SKY/WX    TMP DP  RH WIND       PRES   REMARKS
CEDAR RAPIDS   CLOUDY    42  32  67 E20       29.70S HAZE
CHARLES CITY * CLOUDY    43  41  93 E18       29.72F
CLINTON *      MOCLDY    43  37  81 E15G23    29.79R
DECORAH *      CLOUDY    41  37  87 E15G22    29.76F
DUBUQUE        CLOUDY    41  36  82 E16G24    29.77F
MONTICELLO *   CLOUDY    43  43 100 E12G18    29.75S
OELWEIN *      CLOUDY    43  39  87 E18G29    29.73S
WATERLOO       CLOUDY    44  39  82 E20G26    29.71F
$$

IAZ064-065-067-068-078-250800-
   EAST CENTRAL IOWA

CITY           SKY/WX    TMP DP  RH WIND       PRES   REMARKS
DAVENPORT      MOCLDY    43  39  86 E15       29.74S
IOWA CITY      CLOUDY    45  41  86 E13G21    29.72F
MT. PLEASANT * CLOUDY    52  39  62 E8        29.67F
MUSCATINE *    CLOUDY    48  41  76 E9G16     29.72R
QUAD CITIES    MOCLDY    45  39  79 E16       29.72F
$$

IAZ062-063-075>077-085>089-095>099-250800-
   SOUTHEAST IOWA

CITY           SKY/WX    TMP DP  RH WIND       PRES   REMARKS
BURLINGTON     CLOUDY    54  42  64 SE9       29.66F
FAIRFIELD *    CLOUDY    52  39  62 E8        29.65F
FORT MADISON * LGT RAIN  54  46  76 SE8       29.67F
KEOKUK *       CLOUDY    55  46  71 SE10      29.66F
OSKALOOSA *    CLOUDY    50  43  76 E15       29.64F
CENTERVILLE *  CLOUDY    54  52  94 E13       29.60F
OTTUMWA        CLOUDY    52  43  71 E10       29.62F
WASHINGTON *   CLOUDY    50  46  87 E12       29.68R
$$

ABBREVIATIONS USED IN REMARKS
   TC - TEMPERATURES IN CELSIUS
  WCI - WIND CHILL INDEX
   HX - HEAT INDEX
  VSB - VISIBILITY
$$




USA.gov is the U.S. government's official web portal to all federal, state and local government web resources and services.